Wind_Speed
6 6 6 6 6 5 5 5 5 5 6 6 6 7 7 8 8 9 9 9 10 10 10 11 11 11 11 11 11 11 12 12 12 11 11 11 11 11 11 10 10 10 10
7 6 7 7 7 6 6 6 6 6 6 7 7 8 8 8 9 9 10 10 10 11 11 12 12 12 12 12 12 13 13 13 13 12 12 12 12 12 12 11 11 11 11
7 7 8 8 7 7 7 7 7 7 7 8 8 9 9 9 9 10 10 11 11 12 12 12 13 13 13 13 13 13 13 13 13 13 13 13 13 13 13 13 12 12 12
8 7 7 8 8 8 9 9 9 9 9 9 10 10 10 10 10 11 12 12 13 13 13 13 13 13 14 13 13 14 13 13 13 14 14 14 14 14 14 14 14 13 13
9 8 8 9 9 10 10 10 10 10 10 10 11 11 11 11 11 12 13 14 14 14 14 14 14 13 14 13 14 14 14 14 14 14 15 15 15 15 14 14 15 14 14
10 10 10 11 11 11 11 12 12 11 11 11 11 12 12 12 12 13 14 15 15 15 15 15 15 15 15 15 15 15 15 15 15 15 15 16 15 16 15 15 15 15 15
11 11 11 12 12 12 12 12 13 13 13 13 13 13 13 13 14 14 15 16 16 16 16 16 16 16 16 16 15 16 16 16 16 16 16 16 15 16 16 16 16 16 15
11 11 12 12 13 12 12 13 13 13 14 14 13 13 14 14 15 15 16 16 16 17 17 17 17 17 17 16 16 17 17 17 17 16 16 16 15 15 15 16 16 16 16
12 12 12 13 13 14 14 14 14 14 14 14 14 14 14 14 14 15 16 17 18 18 18 18 18 18 17 17 17 17 17 17 17 16 16 16 16 16 16 15 15 16 16
13 13 13 14 15 15 15 15 15 15 15 15 15 15 15 15 16 17 18 18 18 18 18 18 19 19 19 19 19 18 18 18 18 17 17 17 16 17 16 16 16 16 17
14 14 14 15 15 16 15 16 16 16 16 16 16 16 17 17 17 18 18 19 19 19 19 19 19 19 19 20 20 19 19 19 19 19 18 18 18 18 18 17 17 17 18
15 15 15 16 16 16 17 17 18 17 17 17 18 18 18 19 19 19 20 20 21 21 21 21 20 20 20 21 20 20 21 21 21 20 20 20 20 20 20 19 19 18 19
15 16 16 16 16 16 16 16 17 17 18 18 19 19 20 21 20 20 20 21 22 22 22 22 22 21 21 21 21 21 22 22 22 22 22 22 22 22 22 21 20 20 20
15 15 15 16 16 16 16 15 16 17 18 18 19 19 20 20 21 22 22 22 22 22 23 23 23 23 23 23 23 23 23 23 23 23 23 23 23 22 23 23 22 23 22
15 15 16 16 17 17 18 17 16 17 18 19 19 19 20 20 22 23 23 23 23 22 23 24 24 24 24 25 25 24 23 23 23 23 23 23 23 23 24 24 24 24 24
16 16 16 18 18 18 19 18 17 19 19 18 19 20 21 22 23 22 23 23 23 23 23 24 24 25 25 25 25 25 24 23 23 24 24 24 24 24 24 25 25 25 25
15 16 17 17 18 18 19 19 19 19 19 19 20 20 21 22 23 23 23 23 23 23 24 24 25 25 26 26 25 26 26 25 24 24 25 25 25 25 25 25 26 26 26
16 16 17 16 17 17 19 20 20 20 20 20 20 20 20 21 22 22 22 22 22 22 24 24 25 26 26 26 26 26 25 25 25 25 25 25 26 26 26 26 27 27 27
16 17 17 17 17 18 19 19 20 20 20 20 20 20 20 21 22 22 22 23 24 24 24 25 25 25 26 26 25 25 25 25 24 24 25 25 26 27 27 27 27 28 28
16 16 17 18 19 19 19 19 20 20 20 20 21 21 21 22 23 23 23 24 24 23 24 24 24 25 25 25 25 25 25 25 25 25 25 26 27 27 27 28 29 29 29
16 16 17 17 17 18 18 18 19 19 19 21 22 22 22 22 23 23 23 24 24 24 24 24 24 25 25 25 24 24 25 26 25 25 26 27 27 27 28 28 28 29 30
16 17 17 17 16 17 17 18 19 19 19 20 21 22 22 22 23 23 23 23 23 24 24 24 25 25 24 24 23 24 25 25 25 26 26 26 26 27 27 27 27 29 30
16 16 16 15 15 15 16 16 17 17 18 19 20 21 22 22 22 23 23 24 23 23 23 24 24 24 24 24 24 24 24 25 25 26 26 27 27 27 28 28 28 28 29
16 15 16 15 15 15 15 16 18 17 18 19 20 20 21 21 21 22 23 23 23 23 23 23 24 25 25 24 24 24 24 25 25 26 27 28 29 29 29 29 29 29 30
14 14 14 14 14 15 15 16 16 16 17 18 19 19 20 20 20 21 22 22 22 22 22 22 22 23 23 24 23 23 24 25 26 27 28 29 30 30 30 30 31 31 32
12 12 13 13 13 14 15 15 16 16 17 17 18 19 20 20 21 20 20 21 22 22 22 22 22 22 22 23 24 24 25 25 26 28 29 30 30 30 31 32 33 33 34
Wind_Direction
306 302 298 294 294 297 297 305 313 318 316 315 312 309 307 306 307 309 309 311 311 311 309 308 307 305 304 305 305 305 305 303 301 298 294 290 286 281 278 272 265 262 260
305 301 297 293 292 290 291 296 303 308 309 310 312 309 303 300 301 304 304 306 307 307 306 304 303 301 300 301 302 301 300 298 296 293 291 288 286 282 278 274 266 261 257
300 297 295 291 290 286 288 292 292 296 300 300 302 303 301 298 298 299 300 302 303 304 305 305 303 301 299 300 300 299 298 296 291 288 287 285 284 282 278 274 269 264 260
296 294 290 294 290 287 288 289 288 291 297 299 299 299 297 295 296 296 297 299 300 301 300 301 301 299 299 299 298 298 297 294 291 288 286 284 282 280 276 272 269 265 262
283 281 287 291 292 290 289 285 283 287 291 295 298 298 296 294 295 296 296 298 298 298 297 297 297 297 296 296 295 295 293 291 291 289 286 283 281 279 276 272 268 265 263
276 275 284 289 291 291 287 286 282 282 285 288 294 295 293 292 293 294 295 296 296 297 296 295 296 295 293 292 292 291 290 288 288 287 285 283 281 278 275 271 268 264 261
274 277 283 288 290 288 284 285 281 279 281 283 287 291 293 294 293 292 294 294 294 294 293 292 292 292 291 291 289 288 287 286 286 285 283 282 280 280 275 271 269 265 261
279 278 284 288 287 286 287 284 280 281 281 281 283 286 290 292 291 289 290 290 290 291 291 291 290 290 289 288 288 286 286 287 286 284 282 280 278 277 276 273 270 265 261
280 280 283 284 283 282 282 282 280 280 280 277 278 282 285 288 290 291 290 288 288 288 288 288 289 288 288 287 287 286 286 285 286 285 280 278 276 274 274 273 270 266 263
281 281 284 287 284 281 280 281 281 279 278 277 277 278 281 284 285 286 287 287 287 288 287 287 287 286 286 287 286 285 285 284 283 285 283 280 277 274 272 271 270 266 265
279 281 283 286 281 279 279 279 279 277 279 280 278 277 278 282 282 282 284 285 285 285 283 283 284 284 285 286 287 287 285 283 281 281 282 280 276 273 272 271 269 267 265
277 281 282 284 277 278 279 277 275 277 276 278 278 277 278 280 281 282 283 283 282 281 281 280 281 281 283 285 285 285 283 282 281 279 278 278 276 272 270 269 267 266 265
276 277 281 283 279 277 273 269 270 274 273 276 277 277 279 281 282 282 284 283 281 279 279 280 279 279 281 282 282 284 283 280 281 277 276 276 275 273 269 267 266 266 266
279 277 278 281 280 278 274 269 273 276 275 278 276 279 280 279 281 284 284 283 282 280 279 280 280 279 280 281 282 283 283 281 278 277 275 274 273 273 270 267 266 267 266
279 279 278 279 281 281 276 271 272 276 277 279 279 280 283 282 282 284 284 284 282 283 283 282 282 280 281 281 280 280 280 280 278 276 275 274 272 272 272 269 268 268 268
275 277 276 279 281 279 275 275 276 278 279 279 281 282 282 282 283 285 286 282 281 282 282 282 281 279 281 281 279 278 278 278 276 275 274 273 272 271 271 272 272 270 269
275 275 275 277 280 279 277 277 276 277 278 278 279 282 284 285 286 289 287 285 281 281 282 283 282 281 280 280 280 278 278 277 277 276 276 272 270 270 271 272 271 269 268
276 276 275 276 278 278 277 277 276 276 276 278 279 281 284 284 285 287 288 288 285 282 282 283 282 281 281 281 280 277 278 277 276 276 276 275 272 271 272 272 271 269 268
277 277 277 277 277 277 276 276 276 276 277 280 280 279 282 285 285 284 284 286 286 285 286 286 284 282 281 281 281 276 276 277 276 276 277 277 275 273 273 272 271 270 269
274 273 274 278 277 279 278 278 277 278 277 278 279 280 282 283 283 283 284 285 285 285 286 286 286 284 282 282 280 277 276 277 277 276 278 277 276 274 274 273 271 271 270
274 275 276 279 279 279 277 279 279 280 279 279 281 282 282 281 281 283 285 284 285 284 285 286 288 287 283 282 281 280 279 279 280 278 277 278 278 277 276 275 272 270 270
277 274 276 280 282 281 278 278 281 280 280 281 282 281 281 284 283 284 285 283 285 286 288 290 291 289 285 283 283 283 282 280 279 280 281 281 280 280 280 277 274 271 270
278 277 279 280 281 282 280 281 283 284 282 282 282 281 281 283 283 283 283 283 285 287 288 289 290 288 287 285 285 283 281 280 280 281 282 280 279 278 277 276 274 273 273
279 280 283 283 282 284 285 287 289 289 288 286 284 282 281 283 284 283 283 283 284 285 288 289 290 289 289 288 286 284 283 282 280 280 281 281 281 280 279 278 276 274 274
280 281 285 287 285 285 288 290 294 293 290 287 287 287 286 285 284 284 284 284 285 286 288 289 289 290 290 292 289 288 286 285 284 283 282 281 281 281 280 279 277 275 275
282 285 286 289 289 287 291 292 295 298 295 292 290 288 287 286 285 285 286 286 286 286 287 290 290 292 295 294 291 289 288 288 287 286 284 282 281 280 280 278 277 275 274
Height
5879 5878 5879 5879 5879 5879 5879 5879 5879 5879 5880 5880 5880 5880 5880 5880 5880 5880 5880 5880 5880 5880 5880 5879 5879 5879 5878 5878 5878 5877 5877 5877 5877 5876 5876 5876 5876 5876 5877 5877 5877 5878 5878
5878 5878 5878 5878 5878 5878 5878 5878 5878 5878 5878 5879 5879 5879 5879 5879 5879 5879 5878 5878 5878 5878 5878 5878 5877 5877 5877 5876 5876 5876 5875 5875 5875 5875 5874 5874 5874 5874 5874 5875 5875 5876 5876
5877 5877 5876 5876 5877 5877 5877 5877 5877 5877 5877 5877 5877 5877 5878 5877 5877 5877 5877 5877 5877 5876 5876 5876 5876 5875 5875 5874 5874 5874 5874 5873 5873 5873 5872 5872 5872 5872 5872 5873 5873 5874 5874
5876 5875 5875 5875 5875 5876 5876 5875 5875 5876 5876 5876 5876 5876 5876 5875 5875 5875 5875 5875 5875 5874 5874 5874 5873 5873 5872 5872 5872 5872 5871 5871 5871 5870 5870 5870 5870 5869 5869 5870 5870 5871 5872
5874 5874 5874 5874 5874 5874 5874 5874 5874 5874 5874 5874 5874 5874 5874 5873 5873 5873 5873 5873 5872 5872 5872 5871 5871 5870 5870 5870 5869 5869 5869 5868 5868 5868 5868 5867 5867 5867 5867 5867 5867 5868 5869
5872 5872 5873 5873 5872 5872 5872 5872 5872 5872 5872 5872 5872 5872 5872 5871 5871 5871 5871 5870 5870 5870 5869 5869 5868 5868 5867 5867 5867 5866 5866 5865 5865 5865 5865 5864 5864 5864 5864 5864 5864 5865 5865
5870 5870 5870 5870 5870 5870 5870 5870 5870 5870 5870 5870 5870 5870 5869 5869 5869 5869 5868 5868 5867 5867 5866 5866 5865 5865 5864 5864 5864 5863 5863 5862 5862 5862 5861 5861 5861 5861 5860 5861 5861 5861 5862
5867 5868 5868 5868 5868 5868 5868 5868 5867 5867 5867 5867 5867 5867 5867 5866 5866 5866 5865 5865 5864 5864 5863 5862 5862 5862 5861 5861 5861 5860 5860 5859 5859 5858 5858 5858 5858 5857 5857 5857 5857 5858 5858
5864 5865 5865 5866 5866 5865 5865 5865 5865 5864 5864 5864 5864 5864 5864 5864 5863 5863 5862 5862 5861 5860 5860 5859 5859 5858 5858 5857 5857 5856 5856 5856 5855 5855 5854 5854 5854 5854 5854 5854 5854 5854 5855
5861 5862 5862 5862 5863 5863 5863 5862 5862 5862 5861 5861 5861 5861 5861 5861 5860 5859 5859 5858 5858 5857 5856 5856 5855 5855 5854 5854 5853 5853 5852 5852 5852 5851 5851 5850 5850 5850 5850 5850 5850 5851 5851
5859 5859 5860 5859 5860 5860 5860 5859 5859 5859 5858 5858 5858 5858 5857 5857 5857 5856 5855 5854 5854 5853 5852 5852 5851 5851 5850 5850 5849 5849 5848 5848 5848 5847 5847 5846 5846 5846 5846 5846 5846 5847 5847
5856 5856 5856 5856 5856 5856 5856 5855 5856 5856 5855 5855 5855 5854 5854 5853 5853 5852 5851 5850 5850 5849 5848 5848 5847 5846 5846 5846 5845 5845 5844 5844 5843 5843 5842 5842 5842 5842 5842 5842 5842 5843 5843
5852 5852 5853 5853 5853 5852 5852 5851 5852 5852 5851 5851 5851 5850 5850 5849 5849 5848 5847 5846 5845 5845 5844 5843 5842 5842 5841 5841 5841 5840 5839 5839 5838 5838 5838 5837 5837 5837 5837 5837 5838 5838 5839
5849 5849 5849 5849 5848 5848 5847 5847 5847 5847 5847 5847 5847 5846 5845 5844 5844 5843 5842 5841 5841 5840 5839 5838 5837 5837 5836 5836 5836 5835 5834 5834 5833 5832 5832 5832 5832 5832 5832 5832 5832 5833 5833
5845 5845 5845 5845 5844 5844 5844 5843 5843 5843 5843 5842 5842 5841 5841 5840 5839 5838 5837 5836 5836 5835 5834 5833 5833 5832 5831 5831 5830 5830 5829 5828 5827 5827 5827 5827 5827 5827 5827 5827 5827 5827 5828
5840 5840 5840 5840 5840 5840 5839 5839 5839 5839 5838 5838 5837 5837 5836 5835 5834 5833 5832 5831 5830 5829 5829 5828 5827 5827 5826 5825 5825 5824 5824 5823 5822 5821 5821 5821 5821 5821 5821 5821 5821 5821 5822
5836 5836 5836 5836 5836 5836 5835 5835 5835 5834 5833 5833 5832 5832 5831 5830 5829 5828 5827 5826 5825 5824 5823 5822 5821 5821 5820 5819 5819 5818 5818 5817 5817 5816 5815 5815 5815 5815 5815 5815 5815 5815 5815
5832 5832 5831 5832 5832 5832 5831 5831 5830 5829 5828 5828 5828 5827 5826 5825 5824 5823 5822 5821 5819 5818 5817 5816 5816 5815 5814 5813 5812 5812 5811 5811 5810 5810 5809 5808 5808 5808 5808 5808 5808 5808 5808
5828 5828 5828 5827 5827 5827 5826 5826 5825 5824 5824 5823 5823 5822 5821 5820 5819 5818 5817 5816 5815 5813 5812 5811 5810 5809 5808 5807 5806 5805 5805 5804 5804 5803 5803 5802 5802 5801 5801 5801 5801 5801 5801
5823 5823 5823 5823 5823 5822 5821 5821 5820 5819 5819 5818 5818 5817 5816 5815 5814 5813 5812 5810 5809 5808 5807 5806 5804 5803 5802 5801 5800 5799 5799 5798 5798 5797 5797 5796 5795 5794 5794 5794 5794 5794 5794
5819 5818 5819 5819 5818 5817 5817 5816 5815 5814 5814 5813 5813 5811 5810 5809 5808 5807 5806 5805 5804 5803 5802 5800 5799 5798 5796 5794 5794 5793 5792 5792 5791 5791 5790 5789 5788 5787 5787 5786 5786 5786 5786
5815 5814 5815 5814 5813 5813 5812 5811 5811 5810 5809 5808 5807 5806 5805 5803 5802 5801 5801 5800 5799 5798 5796 5795 5793 5791 5790 5788 5788 5787 5786 5786 5785 5784 5783 5782 5781 5780 5780 5779 5778 5777 5777
5811 5811 5810 5810 5809 5808 5807 5807 5806 5805 5804 5802 5802 5800 5799 5798 5797 5796 5795 5794 5793 5792 5791 5789 5787 5786 5785 5783 5782 5781 5780 5780 5778 5778 5776 5775 5774 5773 5772 5771 5770 5769 5769
5807 5806 5806 5805 5805 5804 5803 5802 5801 5800 5799 5798 5797 5795 5794 5793 5792 5791 5790 5789 5788 5786 5785 5784 5782 5780 5779 5777 5776 5775 5774 5773 5772 5771 5769 5767 5766 5765 5764 5763 5762 5761 5760
5803 5803 5802 5801 5801 5800 5799 5798 5797 5795 5794 5793 5792 5790 5789 5788 5787 5785 5784 5783 5782 5780 5780 5778 5776 5775 5773 5772 5770 5769 5767 5766 5765 5764 5762 5760 5758 5757 5755 5754 5753 5751 5751
5800 5799 5799 5798 5797 5796 5795 5794 5793 5792 5790 5788 5787 5785 5784 5783 5781 5780 5779 5778 5776 5775 5774 5773 5771 5769 5768 5766 5764 5762 5760 5759 5757 5755 5754 5752 5750 5748 5746 5744 5743 5742 5740